N903LE KPVU-1O2

Flight info

Callsign N903LE
Flight time N/A
Altitude 26000
Route DITTI1 TCH J154 BAM J32 COLOM MRRLO
Aircraft P46T/L-SBDGRWY/SB1

Departure

Time 2026-04-28 18:46
Airport Provo Municipal Airport (KPVU)

Arrival

Time N/A
Airport Lampson Field (1O2)
Time Latitude Longitude Altitude Speed Heading
2026-04-28 18:34 40.22032 -111.71971 4496 ft 0 kts 117°
2026-04-28 18:39 40.22021 -111.71980 4497 ft 7 kts 278°
2026-04-28 18:39 40.22055 -111.72017 4496 ft 7 kts 12°
2026-04-28 18:39 40.22103 -111.72004 4499 ft 7 kts 12°
2026-04-28 18:40 40.22147 -111.71992 4496 ft 8 kts 12°
2026-04-28 18:40 40.22233 -111.71968 4496 ft 17 kts 11°
2026-04-28 18:40 40.22365 -111.71933 4497 ft 20 kts 11°
2026-04-28 18:40 40.22480 -111.71909 4497 ft 11 kts 342°
2026-04-28 18:41 40.22523 -111.71945 4498 ft 6 kts 326°
2026-04-28 18:41 40.22554 -111.71971 4497 ft 5 kts 327°
2026-04-28 18:41 40.22577 -111.71991 4497 ft 4 kts 327°
2026-04-28 18:41 40.22608 -111.72017 4501 ft 9 kts 324°
2026-04-28 18:42 40.22637 -111.72117 4501 ft 16 kts 273°
2026-04-28 18:42 40.22647 -111.72290 4497 ft 20 kts 275°
2026-04-28 18:42 40.22658 -111.72469 4497 ft 19 kts 275°
2026-04-28 18:42 40.22667 -111.72615 4497 ft 14 kts 274°
2026-04-28 18:43 40.22706 -111.72706 4497 ft 11 kts 326°
2026-04-28 18:43 40.22764 -111.72757 4498 ft 9 kts 324°
2026-04-28 18:43 40.22808 -111.72796 4499 ft 7 kts 326°
2026-04-28 18:43 40.22851 -111.72835 4501 ft 10 kts 325°
2026-04-28 18:44 40.22933 -111.72907 4498 ft 18 kts 326°
2026-04-28 18:44 40.23085 -111.73042 4499 ft 10 kts 323°
2026-04-28 18:44 40.23078 -111.73121 4499 ft 10 kts 236°
2026-04-28 18:45 40.23056 -111.73164 4499 ft 7 kts 237°
2026-04-28 18:45 40.23012 -111.73226 4501 ft 9 kts 170°
2026-04-28 18:45 40.22995 -111.73215 4500 ft 5 kts 147°
2026-04-28 18:45 40.22803 -111.73041 4498 ft 61 kts 148°
2026-04-28 18:46 40.22320 -111.72621 4499 ft 104 kts 146°
2026-04-28 18:46 40.21662 -111.72029 4692 ft 122 kts 149°
2026-04-28 18:46 40.20905 -111.71357 4982 ft 140 kts 148°
2026-04-28 18:46 40.20018 -111.70890 5452 ft 133 kts 187°
2026-04-28 18:47 40.19212 -111.71277 6019 ft 122 kts 219°
2026-04-28 18:47 40.18732 -111.72244 6308 ft 133 kts 254°
2026-04-28 18:47 40.18424 -111.73394 6685 ft 134 kts 252°
2026-04-28 18:47 40.18103 -111.74552 7013 ft 138 kts 252°
2026-04-28 18:48 40.17779 -111.75749 7381 ft 141 kts 253°
2026-04-28 18:48 40.17457 -111.76944 7878 ft 138 kts 253°
2026-04-28 18:48 40.17139 -111.78116 8389 ft 135 kts 253°
2026-04-28 18:48 40.16826 -111.79272 8818 ft 135 kts 254°
2026-04-28 18:49 40.16509 -111.80440 9188 ft 140 kts 253°
2026-04-28 18:49 40.16400 -111.80849 9311 ft 141 kts 253°
2026-04-28 18:49 40.15857 -111.82860 10010 ft 142 kts 253°
2026-04-28 18:49 40.15526 -111.84078 10390 ft 143 kts 253°
2026-04-28 18:50 40.15195 -111.85302 10774 ft 143 kts 253°
2026-04-28 18:50 40.14861 -111.86530 11159 ft 144 kts 253°
2026-04-28 18:50 40.14526 -111.87763 11547 ft 144 kts 253°
2026-04-28 18:50 40.14191 -111.89002 11932 ft 145 kts 253°
2026-04-28 18:51 40.13852 -111.90248 12321 ft 146 kts 253°
2026-04-28 18:51 40.13654 -111.91530 12703 ft 145 kts 274°
2026-04-28 18:51 40.13853 -111.92814 13088 ft 145 kts 285°
2026-04-28 18:51 40.14099 -111.94096 13485 ft 146 kts 284°
2026-04-28 18:52 40.14346 -111.95384 13881 ft 147 kts 284°
2026-04-28 18:52 40.14596 -111.96678 14254 ft 147 kts 284°
2026-04-28 18:52 40.14845 -111.97970 14621 ft 146 kts 284°
2026-04-28 18:52 40.15091 -111.99254 14986 ft 145 kts 284°
2026-04-28 18:53 40.15338 -112.00534 15357 ft 145 kts 284°
2026-04-28 18:53 40.15582 -112.01804 15745 ft 144 kts 284°
2026-04-28 18:53 40.15825 -112.03071 16122 ft 143 kts 283°
2026-04-28 18:53 40.16067 -112.04331 16503 ft 143 kts 283°
2026-04-28 18:54 40.16308 -112.05585 16880 ft 142 kts 283°
2026-04-28 18:54 40.16546 -112.06834 17251 ft 141 kts 283°
2026-04-28 18:54 40.16909 -112.08027 17627 ft 143 kts 298°
2026-04-28 18:54 40.17542 -112.09037 18000 ft 147 kts 312°
2026-04-28 18:55 40.18415 -112.09774 18368 ft 153 kts 328°
2026-04-28 18:55 40.19098 -112.10056 18592 ft 159 kts 340°
2026-04-28 18:55 40.20634 -112.10011 18996 ft 171 kts 359°
2026-04-28 18:55 40.21815 -112.09793 19307 ft 172 kts 357°
2026-04-28 18:56 40.23004 -112.09580 19610 ft 173 kts 357°
2026-04-28 18:56 40.24202 -112.09362 19938 ft 174 kts 358°
2026-04-28 18:56 40.25404 -112.09142 20266 ft 175 kts 358°
2026-04-28 18:56 40.26611 -112.08922 20575 ft 176 kts 358°
2026-04-28 18:57 40.27830 -112.08701 20885 ft 177 kts 357°
2026-04-28 18:57 40.29039 -112.08480 21189 ft 178 kts 357°
2026-04-28 18:57 40.30273 -112.08255 21502 ft 180 kts 357°
2026-04-28 18:57 40.31517 -112.08029 21809 ft 181 kts 357°
2026-04-28 18:58 40.32771 -112.07800 22121 ft 182 kts 357°
2026-04-28 18:58 40.34032 -112.07570 22429 ft 184 kts 356°
2026-04-28 18:58 40.35303 -112.07338 22747 ft 185 kts 356°
2026-04-28 18:58 40.36583 -112.07104 23056 ft 186 kts 356°
2026-04-28 18:59 40.37891 -112.06868 23207 ft 197 kts 356°
2026-04-28 18:59 40.39299 -112.06614 23221 ft 212 kts 358°
2026-04-28 18:59 40.40804 -112.06332 23228 ft 225 kts 359°
2026-04-28 18:59 40.42385 -112.06036 23230 ft 234 kts 359°
2026-04-28 19:00 40.44021 -112.05731 23230 ft 241 kts 359°
2026-04-28 19:00 40.45694 -112.05420 23249 ft 245 kts 360°
2026-04-28 19:00 40.47395 -112.05104 23235 ft 249 kts 360°
2026-04-28 19:00 40.49123 -112.04791 23232 ft 252 kts 360°
2026-04-28 19:01 40.50866 -112.04472 23235 ft 253 kts 360°
2026-04-28 19:01 40.52612 -112.04149 23228 ft 254 kts
2026-04-28 19:01 40.54361 -112.03827 23231 ft 254 kts 360°
2026-04-28 19:01 40.56114 -112.03505 23231 ft 255 kts
2026-04-28 19:02 40.57868 -112.03183 23231 ft 255 kts
2026-04-28 19:02 40.59624 -112.02860 23230 ft 255 kts 360°
2026-04-28 19:02 40.61383 -112.02537 23229 ft 255 kts 360°
2026-04-28 19:02 40.63140 -112.02213 23228 ft 255 kts
2026-04-28 19:03 40.64898 -112.01889 23227 ft 255 kts
2026-04-28 19:03 40.66657 -112.01565 23226 ft 256 kts
2026-04-28 19:03 40.68419 -112.01241 23225 ft 256 kts
2026-04-28 19:03 40.70185 -112.00915 23224 ft 256 kts
2026-04-28 19:04 40.71949 -112.00589 23222 ft 256 kts
2026-04-28 19:04 40.73714 -112.00264 23217 ft 256 kts
2026-04-28 19:04 40.75456 -111.99942 23212 ft 256 kts
2026-04-28 19:04 40.77202 -111.99838 23204 ft 247 kts 347°
2026-04-28 19:05 40.78865 -112.00249 23201 ft 239 kts 335°
2026-04-28 19:05 40.80369 -112.01095 23200 ft 232 kts 323°
2026-04-28 19:05 40.81666 -112.02302 23203 ft 225 kts 312°
2026-04-28 19:05 40.82722 -112.03793 23205 ft 220 kts 302°
2026-04-28 19:06 40.83515 -112.05497 23205 ft 216 kts 292°
2026-04-28 19:06 40.83890 -112.06708 23206 ft 214 kts 285°
2026-04-28 19:06 40.84269 -112.09268 23200 ft 212 kts 273°
2026-04-28 19:06 40.84227 -112.11211 23205 ft 212 kts 265°
2026-04-28 19:07 40.84095 -112.13148 23205 ft 212 kts 266°
2026-04-28 19:07 40.83976 -112.15093 23204 ft 213 kts 266°
2026-04-28 19:07 40.83854 -112.17045 23202 ft 214 kts 266°
2026-04-28 19:07 40.83729 -112.19002 23199 ft 214 kts 266°
2026-04-28 19:08 40.83645 -112.20301 23193 ft 214 kts 266°
2026-04-28 19:08 40.83519 -112.22264 23190 ft 215 kts 266°
2026-04-28 19:08 40.83393 -112.24228 23187 ft 215 kts 266°
2026-04-28 19:08 40.83266 -112.26195 23184 ft 215 kts 266°
2026-04-28 19:09 40.83139 -112.28165 23183 ft 215 kts 266°
2026-04-28 19:09 40.83011 -112.30133 23180 ft 215 kts 266°
2026-04-28 19:09 40.82883 -112.32101 23176 ft 215 kts 266°
2026-04-28 19:09 40.82755 -112.34069 23175 ft 215 kts 266°
2026-04-28 19:10 40.82626 -112.36037 23176 ft 215 kts 266°
2026-04-28 19:10 40.82497 -112.38003 23172 ft 215 kts 266°
2026-04-28 19:10 40.82368 -112.39971 23169 ft 215 kts 266°
2026-04-28 19:10 40.82238 -112.41941 23168 ft 215 kts 266°
2026-04-28 19:11 40.82108 -112.43907 23167 ft 215 kts 266°
2026-04-28 19:11 40.81978 -112.45877 23154 ft 215 kts 266°
2026-04-28 19:11 40.81846 -112.47848 23160 ft 216 kts 266°
2026-04-28 19:11 40.81715 -112.49824 23162 ft 216 kts 266°
2026-04-28 19:12 40.81584 -112.51807 23164 ft 218 kts 266°
2026-04-28 19:12 40.81449 -112.53799 23162 ft 218 kts 266°
2026-04-28 19:12 40.81315 -112.55793 23161 ft 218 kts 266°
2026-04-28 19:12 40.81181 -112.57790 23160 ft 218 kts 266°
2026-04-28 19:13 40.81047 -112.59786 23160 ft 218 kts 266°
2026-04-28 19:13 40.80912 -112.61781 23160 ft 218 kts 265°
2026-04-28 19:13 40.80779 -112.63748 23160 ft 218 kts 265°
2026-04-28 19:13 40.80643 -112.65742 23161 ft 218 kts 265°
2026-04-28 19:14 40.80507 -112.67735 23164 ft 218 kts 265°
2026-04-28 19:14 40.80371 -112.69728 23162 ft 218 kts 265°
2026-04-28 19:14 40.80235 -112.71719 23160 ft 218 kts 265°
2026-04-28 19:14 40.80098 -112.73711 23157 ft 218 kts 265°
2026-04-28 19:15 40.79961 -112.75704 23157 ft 218 kts 265°
2026-04-28 19:15 40.79823 -112.77697 23155 ft 218 kts 265°
2026-04-28 19:15 40.79685 -112.79688 23157 ft 218 kts 265°
2026-04-28 19:15 40.79591 -112.81037 23155 ft 219 kts 265°
2026-04-28 19:16 40.79408 -112.83683 23159 ft 219 kts 265°
2026-04-28 19:16 40.79268 -112.85680 23151 ft 219 kts 265°
2026-04-28 19:16 40.79128 -112.87682 23150 ft 219 kts 265°
2026-04-28 19:16 40.78988 -112.89680 23152 ft 219 kts 265°
2026-04-28 19:17 40.78848 -112.91681 23154 ft 219 kts 265°
2026-04-28 19:17 40.78707 -112.93682 23155 ft 219 kts 265°
2026-04-28 19:17 40.78565 -112.95687 23153 ft 220 kts 265°
2026-04-28 19:17 40.78424 -112.97694 23149 ft 219 kts 265°
2026-04-28 19:18 40.78282 -112.99694 23153 ft 219 kts 265°
2026-04-28 19:18 40.78139 -113.01691 23150 ft 219 kts 265°
2026-04-28 19:18 40.77997 -113.03689 23150 ft 219 kts 265°
2026-04-28 19:18 40.77854 -113.05692 23149 ft 219 kts 265°
2026-04-28 19:19 40.77710 -113.07695 23154 ft 219 kts 265°
2026-04-28 19:19 40.77566 -113.09698 23152 ft 219 kts 265°
2026-04-28 19:19 40.77422 -113.11699 23159 ft 219 kts 265°
2026-04-28 19:19 40.77277 -113.13701 23155 ft 219 kts 265°
2026-04-28 19:20 40.77133 -113.15705 23156 ft 220 kts 265°
2026-04-28 19:20 40.76987 -113.17715 23155 ft 220 kts 265°
2026-04-28 19:20 40.76841 -113.19722 23154 ft 220 kts 265°
2026-04-28 19:20 40.76694 -113.21733 23155 ft 220 kts 265°
2026-04-28 19:21 40.76548 -113.23742 23167 ft 220 kts 265°
2026-04-28 19:21 40.76401 -113.25750 23168 ft 220 kts 265°
2026-04-28 19:21 40.76253 -113.27758 23169 ft 220 kts 265°
2026-04-28 19:21 40.76105 -113.29767 23167 ft 220 kts 265°
2026-04-28 19:22 40.75957 -113.31775 23168 ft 220 kts 265°
2026-04-28 19:22 40.75859 -113.33106 23165 ft 220 kts 265°
2026-04-28 19:22 40.75660 -113.35794 23165 ft 220 kts 265°
2026-04-28 19:22 40.75512 -113.37775 23172 ft 220 kts 265°
2026-04-28 19:23 40.75363 -113.39784 23170 ft 220 kts 265°
2026-04-28 19:23 40.75213 -113.41791 23171 ft 220 kts 265°
2026-04-28 19:23 40.75062 -113.43798 23174 ft 220 kts 264°
2026-04-28 19:23 40.74912 -113.45807 23172 ft 220 kts 264°
2026-04-28 19:24 40.74761 -113.47819 23173 ft 221 kts 265°
2026-04-28 19:24 40.74609 -113.49834 23180 ft 221 kts 264°
2026-04-28 19:24 40.74457 -113.51850 23179 ft 221 kts 264°
2026-04-28 19:24 40.74304 -113.53870 23179 ft 221 kts 264°
2026-04-28 19:25 40.74151 -113.55886 23183 ft 221 kts 264°
2026-04-28 19:25 40.73997 -113.57901 23184 ft 221 kts 264°
2026-04-28 19:25 40.73844 -113.59916 23185 ft 221 kts 264°
2026-04-28 19:25 40.73690 -113.61931 23201 ft 221 kts 264°
2026-04-28 19:26 40.73534 -113.63952 23206 ft 222 kts 265°
2026-04-28 19:26 40.73378 -113.65985 23207 ft 223 kts 265°
2026-04-28 19:26 40.73222 -113.68022 23209 ft 224 kts 265°
2026-04-28 19:26 40.73065 -113.70063 23211 ft 224 kts 265°
2026-04-28 19:27 40.72907 -113.72106 23216 ft 224 kts 264°
2026-04-28 19:27 40.72748 -113.74151 23218 ft 224 kts 264°
2026-04-28 19:27 40.72603 -113.76197 23216 ft 224 kts 267°
2026-04-28 19:27 40.72535 -113.78252 23217 ft 225 kts 267°
2026-04-28 19:28 40.72462 -113.80311 23218 ft 225 kts 267°
2026-04-28 19:28 40.72386 -113.82368 23221 ft 225 kts 267°
2026-04-28 19:28 40.72310 -113.84424 23222 ft 225 kts 267°
2026-04-28 19:28 40.72235 -113.86481 23226 ft 225 kts 267°
2026-04-28 19:29 40.72160 -113.88537 23230 ft 224 kts 267°
2026-04-28 19:29 40.72109 -113.89898 23230 ft 225 kts 267°
2026-04-28 19:29 40.72007 -113.92646 23232 ft 224 kts 267°
2026-04-28 19:29 40.71930 -113.94703 23230 ft 225 kts 267°
2026-04-28 19:30 40.71853 -113.96759 23234 ft 224 kts 267°
2026-04-28 19:30 40.71775 -113.98813 23232 ft 225 kts 267°
2026-04-28 19:30 40.71698 -114.00868 23230 ft 225 kts 267°
2026-04-28 19:30 40.71620 -114.02923 23231 ft 224 kts 267°
2026-04-28 19:31 40.71541 -114.04977 23233 ft 225 kts 267°
2026-04-28 19:31 40.71462 -114.07032 23232 ft 225 kts 267°
2026-04-28 19:31 40.71383 -114.09086 23230 ft 224 kts 267°
2026-04-28 19:31 40.71303 -114.11140 23233 ft 224 kts 267°
2026-04-28 19:32 40.71224 -114.13192 23231 ft 224 kts 267°
2026-04-28 19:32 40.71144 -114.15243 23232 ft 224 kts 266°
2026-04-28 19:32 40.71063 -114.17293 23227 ft 224 kts 267°
2026-04-28 19:32 40.70982 -114.19340 23224 ft 224 kts 267°
2026-04-28 19:33 40.70902 -114.21358 23224 ft 223 kts 266°
2026-04-28 19:33 40.70820 -114.23403 23226 ft 223 kts 267°
2026-04-28 19:33 40.70739 -114.25447 23218 ft 223 kts 267°
2026-04-28 19:33 40.70656 -114.27488 23219 ft 223 kts 266°
2026-04-28 19:34 40.70573 -114.29530 23220 ft 223 kts 266°
2026-04-28 19:34 40.70490 -114.31581 23215 ft 224 kts 267°
2026-04-28 19:34 40.70407 -114.33638 23214 ft 225 kts 266°
2026-04-28 19:34 40.70324 -114.35699 23210 ft 225 kts 266°
2026-04-28 19:35 40.70239 -114.37757 23188 ft 225 kts 266°
2026-04-28 19:35 40.70154 -114.39816 23183 ft 225 kts 266°
2026-04-28 19:35 40.70068 -114.41874 23184 ft 225 kts 266°
2026-04-28 19:35 40.69983 -114.43932 23182 ft 225 kts 266°
2026-04-28 19:36 40.69897 -114.45992 23184 ft 225 kts 266°
2026-04-28 19:36 40.69810 -114.48052 23183 ft 225 kts 266°
2026-04-28 19:36 40.69724 -114.50112 23182 ft 225 kts 266°
2026-04-28 19:36 40.69636 -114.52172 23178 ft 225 kts 266°
2026-04-28 19:37 40.69548 -114.54229 23178 ft 225 kts 266°
2026-04-28 19:37 40.69490 -114.55593 23178 ft 225 kts 266°
2026-04-28 19:37 40.69372 -114.58347 23180 ft 225 kts 266°
2026-04-28 19:37 40.69284 -114.60407 23177 ft 225 kts 266°
2026-04-28 19:38 40.69194 -114.62469 23183 ft 226 kts 266°
2026-04-28 19:38 40.69105 -114.64536 23173 ft 226 kts 266°
2026-04-28 19:38 40.69015 -114.66602 23172 ft 226 kts 266°
2026-04-28 19:38 40.68925 -114.68666 23171 ft 226 kts 266°
2026-04-28 19:39 40.68834 -114.70728 23168 ft 225 kts 266°
2026-04-28 19:39 40.68744 -114.72789 23168 ft 225 kts 266°
2026-04-28 19:39 40.68652 -114.74848 23182 ft 225 kts 266°
2026-04-28 19:39 40.68559 -114.76918 23173 ft 227 kts 266°
2026-04-28 19:40 40.68466 -114.78998 23167 ft 228 kts 266°
2026-04-28 19:40 40.68372 -114.81084 23169 ft 229 kts 266°
2026-04-28 19:40 40.68279 -114.83178 23172 ft 229 kts 266°
2026-04-28 19:40 40.68185 -114.85280 23170 ft 230 kts 266°
2026-04-28 19:41 40.68089 -114.87387 23171 ft 230 kts 266°
2026-04-28 19:41 40.67993 -114.89492 23172 ft 230 kts 266°
2026-04-28 19:41 40.67897 -114.91597 23170 ft 230 kts 266°
2026-04-28 19:41 40.67800 -114.93700 23168 ft 230 kts 266°
2026-04-28 19:42 40.67702 -114.95803 23171 ft 230 kts 266°
2026-04-28 19:42 40.67605 -114.97906 23169 ft 230 kts 266°
2026-04-28 19:42 40.67507 -115.00009 23168 ft 230 kts 266°
2026-04-28 19:42 40.67442 -115.01402 23171 ft 230 kts 266°
2026-04-28 19:43 40.67309 -115.04215 23165 ft 230 kts 266°
2026-04-28 19:43 40.67211 -115.06314 23165 ft 230 kts 266°
2026-04-28 19:43 40.67112 -115.08412 23164 ft 230 kts 266°
2026-04-28 19:43 40.67013 -115.10481 23163 ft 230 kts 266°
2026-04-28 19:44 40.66913 -115.12579 23166 ft 230 kts 266°
2026-04-28 19:44 40.66812 -115.14677 23159 ft 230 kts 266°
2026-04-28 19:44 40.66712 -115.16775 23157 ft 230 kts 266°
2026-04-28 19:44 40.66611 -115.18873 23162 ft 230 kts 266°
2026-04-28 19:45 40.66509 -115.20969 23166 ft 229 kts 266°
2026-04-28 19:45 40.66407 -115.23069 23165 ft 230 kts 266°
2026-04-28 19:45 40.66304 -115.25166 23163 ft 229 kts 266°
2026-04-28 19:45 40.66202 -115.27260 23159 ft 229 kts 266°
2026-04-28 19:46 40.66099 -115.29353 23160 ft 229 kts 266°
2026-04-28 19:46 40.65998 -115.31438 23166 ft 228 kts 266°
2026-04-28 19:46 40.65893 -115.33523 23170 ft 228 kts 265°
2026-04-28 19:46 40.65788 -115.35613 23168 ft 229 kts 265°
2026-04-28 19:47 40.65684 -115.37708 23170 ft 229 kts 265°
2026-04-28 19:47 40.65579 -115.39813 23164 ft 231 kts 266°
2026-04-28 19:47 40.65473 -115.41924 23162 ft 231 kts 265°
2026-04-28 19:47 40.65366 -115.44037 23163 ft 231 kts 265°
2026-04-28 19:48 40.65259 -115.46150 23165 ft 231 kts 265°
2026-04-28 19:48 40.65152 -115.48262 23163 ft 231 kts 265°
2026-04-28 19:48 40.65043 -115.50375 23159 ft 231 kts 265°
2026-04-28 19:48 40.64935 -115.52491 23152 ft 231 kts 265°
2026-04-28 19:49 40.64827 -115.54603 23152 ft 231 kts 265°
2026-04-28 19:49 40.64719 -115.56714 23150 ft 231 kts 265°
2026-04-28 19:49 40.64610 -115.58825 23148 ft 231 kts 265°
2026-04-28 19:49 40.64500 -115.60933 23149 ft 231 kts 265°
2026-04-28 19:50 40.64281 -115.65143 23148 ft 231 kts 265°
2026-04-28 19:50 40.64170 -115.67252 23143 ft 231 kts 265°
2026-04-28 19:50 40.64060 -115.69359 23144 ft 231 kts 265°
2026-04-28 19:51 40.63948 -115.71473 23147 ft 231 kts 265°
2026-04-28 19:51 40.63835 -115.73587 23146 ft 231 kts 265°
2026-04-28 19:51 40.63723 -115.75700 23144 ft 231 kts 265°
2026-04-28 19:51 40.63612 -115.77789 23139 ft 231 kts 265°
2026-04-28 19:52 40.63498 -115.79904 23141 ft 231 kts 265°
2026-04-28 19:52 40.63385 -115.82018 23139 ft 231 kts 265°
2026-04-28 19:52 40.63271 -115.84134 23146 ft 232 kts 265°
2026-04-28 19:52 40.63156 -115.86261 23144 ft 234 kts 265°
2026-04-28 19:53 40.63040 -115.88395 23143 ft 234 kts 265°
2026-04-28 19:53 40.62924 -115.90533 23142 ft 234 kts 265°
2026-04-28 19:53 40.62807 -115.92674 23141 ft 234 kts 265°
2026-04-28 19:53 40.62690 -115.94788 23140 ft 234 kts 265°
2026-04-28 19:54 40.62573 -115.96927 23142 ft 234 kts 265°
2026-04-28 19:54 40.62454 -115.99066 23142 ft 235 kts 265°
2026-04-28 19:54 40.62337 -116.01211 23141 ft 235 kts 265°
2026-04-28 19:54 40.62216 -116.03359 23135 ft 235 kts 265°
2026-04-28 19:55 40.62096 -116.05512 23140 ft 235 kts 265°
2026-04-28 19:55 40.62016 -116.06938 23138 ft 236 kts 265°
2026-04-28 19:55 40.61895 -116.09093 23138 ft 236 kts 265°
2026-04-28 19:55 40.61734 -116.11946 23141 ft 236 kts 265°
2026-04-28 19:56 40.61613 -116.14094 23134 ft 235 kts 265°
2026-04-28 19:56 40.61531 -116.15545 23134 ft 235 kts 265°
2026-04-28 19:56 40.61409 -116.17697 23135 ft 236 kts 265°
2026-04-28 19:56 40.61287 -116.19818 23133 ft 236 kts 265°
2026-04-28 19:57 40.61164 -116.21967 23132 ft 236 kts 265°
2026-04-28 19:57 40.61041 -116.24115 23131 ft 235 kts 265°
2026-04-28 19:57 40.60917 -116.26263 23130 ft 236 kts 265°
2026-04-28 19:57 40.60793 -116.28413 23129 ft 236 kts 265°
2026-04-28 19:58 40.60668 -116.30564 23128 ft 236 kts 265°
2026-04-28 19:58 40.60543 -116.32718 23130 ft 236 kts 265°
2026-04-28 19:58 40.60416 -116.34879 23128 ft 236 kts 265°
2026-04-28 19:58 40.60290 -116.37034 23128 ft 236 kts 265°
2026-04-28 19:59 40.60165 -116.39187 23127 ft 236 kts 265°
2026-04-28 19:59 40.60038 -116.41338 23128 ft 236 kts 265°
2026-04-28 19:59 40.59911 -116.43488 23130 ft 236 kts 265°
2026-04-28 19:59 40.59783 -116.45640 23136 ft 236 kts 265°
2026-04-28 20:00 40.59655 -116.47792 23148 ft 236 kts 265°
2026-04-28 20:00 40.59527 -116.49941 23149 ft 236 kts 265°
2026-04-28 20:00 40.59398 -116.52089 23149 ft 235 kts 265°
2026-04-28 20:00 40.59269 -116.54240 23153 ft 235 kts 265°
2026-04-28 20:01 40.59140 -116.56385 23160 ft 235 kts 265°
2026-04-28 20:01 40.59011 -116.58535 23162 ft 236 kts 265°
2026-04-28 20:01 40.58881 -116.60688 23159 ft 236 kts 265°
2026-04-28 20:01 40.58749 -116.62840 23162 ft 236 kts 265°
2026-04-28 20:02 40.58618 -116.64992 23167 ft 236 kts 265°
2026-04-28 20:02 40.58486 -116.67147 23169 ft 236 kts 265°
2026-04-28 20:02 40.58354 -116.69298 23173 ft 236 kts 265°
2026-04-28 20:02 40.58221 -116.71453 23179 ft 237 kts 265°
2026-04-28 20:03 40.58088 -116.73613 23181 ft 237 kts 265°
2026-04-28 20:03 40.57954 -116.75776 23185 ft 237 kts 265°
2026-04-28 20:03 40.57820 -116.77915 23186 ft 237 kts 265°
2026-04-28 20:03 40.57685 -116.80082 23185 ft 237 kts 265°
2026-04-28 20:04 40.57551 -116.82247 23186 ft 237 kts 265°
2026-04-28 20:04 40.57415 -116.84407 23186 ft 236 kts 265°
2026-04-28 20:04 40.57280 -116.86568 23185 ft 236 kts 265°
2026-04-28 20:04 40.57146 -116.88696 23192 ft 237 kts 265°
2026-04-28 20:05 40.57011 -116.90838 23190 ft 238 kts 265°
2026-04-28 20:05 40.56737 -116.92974 23183 ft 237 kts 252°
2026-04-28 20:05 40.56190 -116.95020 23188 ft 237 kts 251°
2026-04-28 20:05 40.55668 -116.97047 23189 ft 237 kts 252°
2026-04-28 20:06 40.55139 -116.99104 23185 ft 238 kts 252°
2026-04-28 20:06 40.54604 -117.01159 23180 ft 238 kts 251°
2026-04-28 20:06 40.54068 -117.03214 23176 ft 238 kts 251°
2026-04-28 20:06 40.53532 -117.05269 23170 ft 238 kts 251°
2026-04-28 20:07 40.52996 -117.07323 23169 ft 238 kts 251°
2026-04-28 20:07 40.52633 -117.08714 23165 ft 238 kts 251°
2026-04-28 20:07 40.51923 -117.11435 23158 ft 238 kts 251°
2026-04-28 20:07 40.51386 -117.13489 23152 ft 238 kts 251°
2026-04-28 20:08 40.50849 -117.15540 23153 ft 237 kts 251°
2026-04-28 20:08 40.50313 -117.17591 23146 ft 237 kts 252°
2026-04-28 20:08 40.49775 -117.19642 23119 ft 238 kts 251°
2026-04-28 20:08 40.49237 -117.21695 23116 ft 238 kts 251°
2026-04-28 20:09 40.48698 -117.23750 23126 ft 238 kts 251°
2026-04-28 20:09 40.48159 -117.25799 23123 ft 238 kts 251°
2026-04-28 20:09 40.47619 -117.27853 23122 ft 238 kts 251°
2026-04-28 20:09 40.47079 -117.29904 23123 ft 238 kts 251°
2026-04-28 20:10 40.46539 -117.31956 23123 ft 238 kts 251°
2026-04-28 20:10 40.45998 -117.34007 23122 ft 238 kts 251°
2026-04-28 20:10 40.45457 -117.36059 23123 ft 238 kts 251°
2026-04-28 20:10 40.44915 -117.38109 23126 ft 238 kts 251°
2026-04-28 20:11 40.44373 -117.40163 23123 ft 238 kts 251°
2026-04-28 20:11 40.43831 -117.42213 23121 ft 238 kts 251°
2026-04-28 20:11 40.43287 -117.44265 23123 ft 238 kts 251°
2026-04-28 20:11 40.42744 -117.46314 23121 ft 238 kts 251°
2026-04-28 20:12 40.42201 -117.48363 23126 ft 238 kts 252°
2026-04-28 20:12 40.41656 -117.50416 23126 ft 238 kts 251°
2026-04-28 20:12 40.41110 -117.52473 23126 ft 239 kts 251°
2026-04-28 20:12 40.40740 -117.53867 23125 ft 240 kts 251°
2026-04-28 20:13 40.40012 -117.56600 23128 ft 240 kts 251°
2026-04-28 20:13 40.39463 -117.58666 23127 ft 240 kts 251°
2026-04-28 20:13 40.38912 -117.60731 23125 ft 240 kts 251°
2026-04-28 20:13 40.38362 -117.62796 23124 ft 240 kts 251°
2026-04-28 20:14 40.37811 -117.64857 23128 ft 239 kts 251°
2026-04-28 20:14 40.37262 -117.66917 23129 ft 239 kts 251°
2026-04-28 20:14 40.36712 -117.68974 23127 ft 239 kts 251°
2026-04-28 20:14 40.36161 -117.71033 23131 ft 239 kts 251°
2026-04-28 20:15 40.35610 -117.73088 23125 ft 239 kts 251°
2026-04-28 20:15 40.35059 -117.75144 23127 ft 239 kts 251°
2026-04-28 20:15 40.34507 -117.77200 23130 ft 239 kts 251°
2026-04-28 20:15 40.33954 -117.79259 23128 ft 239 kts 251°
2026-04-28 20:16 40.33404 -117.81310 23128 ft 238 kts 251°
2026-04-28 20:16 40.32855 -117.83352 23128 ft 237 kts 251°
2026-04-28 20:16 40.32309 -117.85381 23130 ft 236 kts 251°
2026-04-28 20:16 40.31764 -117.87403 23130 ft 235 kts 251°
2026-04-28 20:17 40.31221 -117.89421 23134 ft 235 kts 251°
2026-04-28 20:17 40.30677 -117.91435 23131 ft 234 kts 251°
2026-04-28 20:17 40.30134 -117.93446 23132 ft 234 kts 251°
2026-04-28 20:17 40.29591 -117.95455 23130 ft 234 kts 251°
2026-04-28 20:18 40.29049 -117.97460 23130 ft 233 kts 251°
2026-04-28 20:18 40.28690 -117.98787 23128 ft 233 kts 251°
2026-04-28 20:18 40.27965 -118.01465 23127 ft 233 kts 251°
2026-04-28 20:18 40.27423 -118.03466 23128 ft 233 kts 251°
2026-04-28 20:19 40.26880 -118.05466 23132 ft 233 kts 251°
2026-04-28 20:19 40.26336 -118.07467 23128 ft 233 kts 251°
2026-04-28 20:19 40.25792 -118.09471 23131 ft 234 kts 251°
2026-04-28 20:19 40.25246 -118.11477 23129 ft 234 kts 251°
2026-04-28 20:20 40.24701 -118.13482 23135 ft 234 kts 251°
2026-04-28 20:20 40.24154 -118.15492 23134 ft 235 kts 251°
2026-04-28 20:20 40.23605 -118.17504 23133 ft 235 kts 251°
2026-04-28 20:20 40.23055 -118.19519 23132 ft 235 kts 251°
2026-04-28 20:21 40.22505 -118.21535 23130 ft 235 kts 251°
2026-04-28 20:21 40.21955 -118.23549 23129 ft 235 kts 251°
2026-04-28 20:21 40.21405 -118.25562 23130 ft 235 kts 251°
2026-04-28 20:21 40.20854 -118.27572 23132 ft 235 kts 251°
2026-04-28 20:22 40.20303 -118.29584 23130 ft 235 kts 251°
2026-04-28 20:22 40.19752 -118.31597 23133 ft 235 kts 251°
2026-04-28 20:22 40.19200 -118.33609 23135 ft 235 kts 251°
2026-04-28 20:22 40.18648 -118.35619 23135 ft 235 kts 251°
2026-04-28 20:23 40.18095 -118.37630 23131 ft 235 kts 251°
2026-04-28 20:23 40.17548 -118.39621 23133 ft 236 kts 251°
2026-04-28 20:23 40.16992 -118.41641 23132 ft 236 kts 251°
2026-04-28 20:23 40.16436 -118.43661 23132 ft 236 kts 251°
2026-04-28 20:24 40.15879 -118.45680 23130 ft 236 kts 251°
2026-04-28 20:24 40.15321 -118.47701 23133 ft 236 kts 251°
2026-04-28 20:24 40.14764 -118.49722 23132 ft 236 kts 251°
2026-04-28 20:24 40.14206 -118.51744 23131 ft 237 kts 251°
2026-04-28 20:25 40.13647 -118.53764 23129 ft 236 kts 251°
2026-04-28 20:25 40.13089 -118.55781 23130 ft 236 kts 251°
2026-04-28 20:25 40.12489 -118.57775 23127 ft 236 kts 244°
2026-04-28 20:25 40.11571 -118.59549 23133 ft 236 kts 236°
2026-04-28 20:26 40.10618 -118.61298 23134 ft 236 kts 237°
2026-04-28 20:26 40.09673 -118.63056 23133 ft 236 kts 237°
2026-04-28 20:26 40.08723 -118.64810 23130 ft 237 kts 236°
2026-04-28 20:26 40.07770 -118.66563 23158 ft 237 kts 236°
2026-04-28 20:27 40.06815 -118.68318 23160 ft 237 kts 237°
2026-04-28 20:27 40.05862 -118.70072 23157 ft 238 kts 236°
2026-04-28 20:27 40.04905 -118.71834 23153 ft 238 kts 237°
2026-04-28 20:27 40.03948 -118.73593 23152 ft 238 kts 237°
2026-04-28 20:28 40.02988 -118.75357 23154 ft 238 kts 236°
2026-04-28 20:28 40.02028 -118.77118 23151 ft 238 kts 236°
2026-04-28 20:28 40.01068 -118.78881 23149 ft 238 kts 236°
2026-04-28 20:28 40.00108 -118.80644 23147 ft 238 kts 237°
2026-04-28 20:29 39.99146 -118.82406 23147 ft 239 kts 236°
2026-04-28 20:29 39.98183 -118.84169 23139 ft 239 kts 237°
2026-04-28 20:29 39.97220 -118.85933 23136 ft 239 kts 237°
2026-04-28 20:29 39.96255 -118.87699 23133 ft 239 kts 237°
2026-04-28 20:30 39.95292 -118.89462 23133 ft 239 kts 236°
2026-04-28 20:30 39.94327 -118.91224 23129 ft 239 kts 236°
2026-04-28 20:30 39.93363 -118.92986 23129 ft 239 kts 237°
2026-04-28 20:30 39.92399 -118.94746 23127 ft 239 kts 237°
2026-04-28 20:31 39.91433 -118.96508 23127 ft 239 kts 237°
2026-04-28 20:31 39.90465 -118.98275 23121 ft 240 kts 237°
2026-04-28 20:31 39.89507 -119.00022 23123 ft 240 kts 237°
2026-04-28 20:31 39.88537 -119.01789 23118 ft 240 kts 237°
2026-04-28 20:32 39.87567 -119.03556 23121 ft 240 kts 237°
2026-04-28 20:32 39.86593 -119.05328 23119 ft 240 kts 237°
2026-04-28 20:32 39.85621 -119.07097 23120 ft 240 kts 237°
2026-04-28 20:32 39.84647 -119.08866 23121 ft 240 kts 237°
2026-04-28 20:33 39.83674 -119.10635 23119 ft 240 kts 236°
2026-04-28 20:33 39.82700 -119.12404 23119 ft 241 kts 236°
2026-04-28 20:33 39.81724 -119.14174 23113 ft 241 kts 236°
2026-04-28 20:33 39.80748 -119.15945 23112 ft 241 kts 237°
2026-04-28 20:34 39.79771 -119.17715 23109 ft 241 kts 236°
2026-04-28 20:34 39.78794 -119.19485 23108 ft 241 kts 237°
2026-04-28 20:34 39.77817 -119.21257 23108 ft 241 kts 236°
2026-04-28 20:34 39.76838 -119.23028 23108 ft 241 kts 237°
2026-04-28 20:35 39.75858 -119.24799 23113 ft 241 kts 236°
2026-04-28 20:35 39.74879 -119.26570 23114 ft 241 kts 237°
2026-04-28 20:35 39.73899 -119.28339 23115 ft 242 kts 237°
2026-04-28 20:35 39.72929 -119.30092 23117 ft 242 kts 237°
2026-04-28 20:36 39.71944 -119.31868 23115 ft 242 kts 237°
2026-04-28 20:36 39.70958 -119.33647 23114 ft 243 kts 237°
2026-04-28 20:36 39.69969 -119.35430 23114 ft 243 kts 237°
2026-04-28 20:36 39.68978 -119.37215 23114 ft 243 kts 237°
2026-04-28 20:37 39.67988 -119.38998 23120 ft 243 kts 237°
2026-04-28 20:37 39.66998 -119.40781 23113 ft 244 kts 237°
2026-04-28 20:37 39.66007 -119.42564 23112 ft 243 kts 237°
2026-04-28 20:37 39.65015 -119.44345 23119 ft 243 kts 237°
2026-04-28 20:38 39.64024 -119.46125 23123 ft 243 kts 237°
2026-04-28 20:38 39.63035 -119.47902 23126 ft 243 kts 237°
2026-04-28 20:38 39.62044 -119.49682 23127 ft 243 kts 237°
2026-04-28 20:38 39.61053 -119.51457 23136 ft 243 kts 237°
2026-04-28 20:39 39.60062 -119.53234 23134 ft 243 kts 237°
2026-04-28 20:39 39.59071 -119.55010 23138 ft 243 kts 237°
2026-04-28 20:39 39.58080 -119.56784 23140 ft 243 kts 237°
2026-04-28 20:39 39.57424 -119.57959 23142 ft 243 kts 237°
2026-04-28 20:40 39.56109 -119.60310 23150 ft 243 kts 237°
2026-04-28 20:40 39.55119 -119.62081 23152 ft 243 kts 237°
2026-04-28 20:40 39.54125 -119.63855 23153 ft 243 kts 237°
2026-04-28 20:40 39.53130 -119.65634 23157 ft 243 kts 237°
2026-04-28 20:41 39.52470 -119.66810 23160 ft 244 kts 237°
2026-04-28 20:41 39.51476 -119.68588 23159 ft 244 kts 237°
2026-04-28 20:41 39.50481 -119.70365 23159 ft 244 kts 237°
2026-04-28 20:41 39.49485 -119.72142 23157 ft 244 kts 237°
2026-04-28 20:42 39.48488 -119.73918 23160 ft 244 kts 237°
2026-04-28 20:42 39.47493 -119.75691 23159 ft 244 kts 237°
2026-04-28 20:42 39.46495 -119.77469 23157 ft 244 kts 237°
2026-04-28 20:42 39.45499 -119.79241 23158 ft 243 kts 237°
2026-04-28 20:43 39.44504 -119.81013 23157 ft 243 kts 237°
2026-04-28 20:43 39.43507 -119.82785 23151 ft 243 kts 237°
2026-04-28 20:43 39.42511 -119.84555 23158 ft 243 kts 237°
2026-04-28 20:43 39.41514 -119.86325 23152 ft 244 kts 237°
2026-04-28 20:44 39.40514 -119.88101 23150 ft 243 kts 237°
2026-04-28 20:44 39.39518 -119.89869 23146 ft 244 kts 237°
2026-04-28 20:44 39.38519 -119.91641 23142 ft 244 kts 237°
2026-04-28 20:44 39.37517 -119.93415 23142 ft 244 kts 237°
2026-04-28 20:45 39.36516 -119.95189 23135 ft 245 kts 237°
2026-04-28 20:45 39.35511 -119.96968 23133 ft 245 kts 237°
2026-04-28 20:45 39.34507 -119.98744 23123 ft 245 kts 237°
2026-04-28 20:45 39.33502 -120.00520 23182 ft 245 kts 237°
2026-04-28 20:46 39.32494 -120.02301 23187 ft 245 kts 237°
2026-04-28 20:46 39.31487 -120.04081 23186 ft 246 kts 237°
2026-04-28 20:46 39.30479 -120.05860 23187 ft 245 kts 237°
2026-04-28 20:46 39.29472 -120.07637 23187 ft 245 kts 237°
2026-04-28 20:47 39.28463 -120.09417 23186 ft 246 kts 237°
2026-04-28 20:47 39.27453 -120.11195 23185 ft 246 kts 237°
2026-04-28 20:47 39.26443 -120.12974 23186 ft 246 kts 237°
2026-04-28 20:47 39.25446 -120.14730 23187 ft 246 kts 237°
2026-04-28 20:48 39.24433 -120.16512 23187 ft 247 kts 237°
2026-04-28 20:48 39.23417 -120.18299 23184 ft 247 kts 237°
2026-04-28 20:48 39.22401 -120.20084 23183 ft 247 kts 237°
2026-04-28 20:48 39.21384 -120.21871 23178 ft 247 kts 237°
2026-04-28 20:49 39.20368 -120.23654 23171 ft 247 kts 237°
2026-04-28 20:49 39.19352 -120.25437 23169 ft 247 kts 237°
2026-04-28 20:49 39.18335 -120.27220 23166 ft 247 kts 237°
2026-04-28 20:49 39.17316 -120.29005 23165 ft 247 kts 237°
2026-04-28 20:50 39.16298 -120.30790 23160 ft 247 kts 237°
2026-04-28 20:50 39.15279 -120.32574 23157 ft 247 kts 237°
2026-04-28 20:50 39.14262 -120.34353 23153 ft 247 kts 237°
2026-04-28 20:50 39.13244 -120.36133 23149 ft 247 kts 237°
2026-04-28 20:51 39.12223 -120.37916 23144 ft 247 kts 237°
2026-04-28 20:51 39.11205 -120.39695 23139 ft 246 kts 237°
2026-04-28 20:51 39.10185 -120.41475 23145 ft 248 kts 238°
2026-04-28 20:51 39.09155 -120.43271 23149 ft 250 kts 238°
2026-04-28 20:52 39.08122 -120.45075 23153 ft 251 kts 238°
2026-04-28 20:52 39.07084 -120.46884 23153 ft 251 kts 238°
2026-04-28 20:52 39.06044 -120.48696 23153 ft 252 kts 238°
2026-04-28 20:52 39.05001 -120.50512 23156 ft 253 kts 238°
2026-04-28 20:53 39.02920 -120.54127 23158 ft 253 kts 238°
2026-04-28 20:53 39.01871 -120.55956 23158 ft 254 kts 238°
2026-04-28 20:53 39.00820 -120.57781 23153 ft 254 kts 238°
2026-04-28 20:54 38.99769 -120.59604 23147 ft 254 kts 238°
2026-04-28 20:54 38.98719 -120.61423 23148 ft 253 kts 238°
2026-04-28 20:54 38.97674 -120.63236 23161 ft 252 kts 238°
2026-04-28 20:54 38.96628 -120.65049 23154 ft 253 kts 238°
2026-04-28 20:55 38.95582 -120.66860 23159 ft 253 kts 238°
2026-04-28 20:55 38.94532 -120.68678 23162 ft 253 kts 238°
2026-04-28 20:55 38.93482 -120.70498 23161 ft 254 kts 238°
2026-04-28 20:55 38.92428 -120.72319 23162 ft 254 kts 238°
2026-04-28 20:56 38.91374 -120.74139 23169 ft 254 kts 238°
2026-04-28 20:56 38.90319 -120.75962 23168 ft 254 kts 238°
2026-04-28 20:56 38.89266 -120.77781 23172 ft 254 kts 238°
2026-04-28 20:56 38.88212 -120.79598 23172 ft 254 kts 238°
2026-04-28 20:57 38.87158 -120.81416 23173 ft 254 kts 238°
2026-04-28 20:57 38.86102 -120.83235 23175 ft 254 kts 238°
2026-04-28 20:57 38.85065 -120.85036 23177 ft 253 kts 240°
2026-04-28 20:57 38.84317 -120.87034 23195 ft 246 kts 258°
2026-04-28 20:58 38.84026 -120.89173 23191 ft 241 kts 274°
2026-04-28 20:58 38.84095 -120.91307 23187 ft 239 kts 279°
2026-04-28 20:58 38.84180 -120.93442 23184 ft 239 kts 278°
2026-04-28 20:58 38.84263 -120.95569 23179 ft 239 kts 279°
2026-04-28 20:59 38.84352 -120.97698 23164 ft 239 kts 280°
2026-04-28 20:59 38.84439 -120.99830 23163 ft 239 kts 280°
2026-04-28 20:59 38.84525 -121.01965 23163 ft 240 kts 280°
2026-04-28 20:59 38.84611 -121.04097 23164 ft 240 kts 280°
2026-04-28 21:00 38.84696 -121.06235 23166 ft 240 kts 280°
2026-04-28 21:00 38.84781 -121.08378 23166 ft 240 kts 280°
2026-04-28 21:00 38.84867 -121.10522 23165 ft 241 kts 280°
2026-04-28 21:00 38.84952 -121.12669 23164 ft 241 kts 280°
2026-04-28 21:01 38.85037 -121.14819 23167 ft 241 kts 280°
2026-04-28 21:01 38.85121 -121.16972 23165 ft 241 kts 280°
2026-04-28 21:01 38.85203 -121.19097 23164 ft 241 kts 280°
2026-04-28 21:01 38.85287 -121.21250 23139 ft 241 kts 280°
2026-04-28 21:02 38.85370 -121.23404 23143 ft 241 kts 280°
2026-04-28 21:02 38.85452 -121.25553 23143 ft 241 kts 282°
2026-04-28 21:02 38.85534 -121.27708 23138 ft 242 kts 282°
2026-04-28 21:02 38.85617 -121.29872 23140 ft 243 kts 282°
2026-04-28 21:03 38.85699 -121.32040 23139 ft 243 kts 282°
2026-04-28 21:03 38.85781 -121.34210 23138 ft 244 kts 282°
2026-04-28 21:03 38.85862 -121.36382 23140 ft 244 kts 282°
2026-04-28 21:03 38.85943 -121.38556 23139 ft 244 kts 282°
2026-04-28 21:04 38.86024 -121.40736 23138 ft 244 kts 282°
2026-04-28 21:04 38.86105 -121.42912 23139 ft 244 kts 282°
2026-04-28 21:04 38.86184 -121.45088 23138 ft 244 kts 282°
2026-04-28 21:04 38.86264 -121.47266 23140 ft 244 kts 282°
2026-04-28 21:05 38.86343 -121.49443 23138 ft 244 kts 282°
2026-04-28 21:05 38.86422 -121.51624 23140 ft 244 kts 282°
2026-04-28 21:05 38.86499 -121.53799 23143 ft 243 kts 282°
2026-04-28 21:05 38.86577 -121.55972 23140 ft 244 kts 283°
2026-04-28 21:06 38.86655 -121.58122 23140 ft 244 kts 283°
2026-04-28 21:06 38.86732 -121.60301 23141 ft 244 kts 282°
2026-04-28 21:06 38.86808 -121.62479 23141 ft 244 kts 282°
2026-04-28 21:06 38.86885 -121.64659 23143 ft 244 kts 282°
2026-04-28 21:07 38.86961 -121.66837 23144 ft 245 kts 282°
2026-04-28 21:07 38.87036 -121.69024 23151 ft 246 kts 279°
2026-04-28 21:07 38.87161 -121.71202 23146 ft 247 kts 284°
2026-04-28 21:07 38.87215 -121.73447 23148 ft 255 kts 282°
2026-04-28 21:08 38.87260 -121.75730 23156 ft 257 kts 282°
2026-04-28 21:08 38.87336 -121.78026 23156 ft 257 kts 282°
2026-04-28 21:08 38.87421 -121.80314 23141 ft 256 kts 282°
2026-04-28 21:08 38.87499 -121.82602 23150 ft 256 kts 282°
2026-04-28 21:09 38.87572 -121.84876 23142 ft 253 kts 282°
2026-04-28 21:09 38.87643 -121.87115 23142 ft 250 kts 282°
2026-04-28 21:09 38.87717 -121.89328 23145 ft 247 kts 282°
2026-04-28 21:09 38.87791 -121.91526 23145 ft 245 kts 282°
2026-04-28 21:10 38.87863 -121.93708 23144 ft 244 kts 282°
2026-04-28 21:10 38.87934 -121.95884 23144 ft 244 kts 282°
2026-04-28 21:10 38.88004 -121.98054 23142 ft 243 kts 282°
2026-04-28 21:10 38.88074 -122.00223 23142 ft 243 kts 282°
2026-04-28 21:11 38.88142 -122.02388 23145 ft 243 kts 282°
2026-04-28 21:11 38.88211 -122.04559 23144 ft 243 kts 282°
2026-04-28 21:11 38.88279 -122.06722 23144 ft 243 kts 282°
2026-04-28 21:11 38.88346 -122.08854 23143 ft 242 kts 282°
2026-04-28 21:12 38.88412 -122.11006 23143 ft 241 kts 282°
2026-04-28 21:12 38.88479 -122.13157 23140 ft 241 kts 282°
2026-04-28 21:12 38.88545 -122.15303 23144 ft 240 kts 282°
2026-04-28 21:12 38.88610 -122.17449 23140 ft 241 kts 282°
2026-04-28 21:13 38.88675 -122.19592 23141 ft 240 kts 282°
2026-04-28 21:13 38.88740 -122.21733 23140 ft 240 kts 282°
2026-04-28 21:13 38.88805 -122.23872 23141 ft 240 kts 282°
2026-04-28 21:13 38.88869 -122.26022 23140 ft 241 kts 282°
2026-04-28 21:14 38.88930 -122.28166 23151 ft 239 kts 282°
2026-04-28 21:14 38.88993 -122.30297 23146 ft 239 kts 282°
2026-04-28 21:14 38.89058 -122.32437 23147 ft 240 kts 282°
2026-04-28 21:14 38.89121 -122.34563 23144 ft 241 kts 282°
2026-04-28 21:15 38.89180 -122.36730 23140 ft 240 kts 281°
2026-04-28 21:15 38.89242 -122.38868 23142 ft 240 kts 281°
2026-04-28 21:15 38.89304 -122.41004 23140 ft 239 kts 281°
2026-04-28 21:15 38.89362 -122.43143 23138 ft 240 kts 281°
2026-04-28 21:16 38.89424 -122.45256 23139 ft 240 kts 281°
2026-04-28 21:16 38.89485 -122.47395 23137 ft 240 kts 281°
2026-04-28 21:16 38.89543 -122.49537 23135 ft 240 kts 281°
2026-04-28 21:16 38.89601 -122.51671 23131 ft 239 kts 281°
2026-04-28 21:17 38.89657 -122.53798 23133 ft 239 kts 281°
2026-04-28 21:17 38.89719 -122.55932 23132 ft 239 kts 281°
2026-04-28 21:17 38.89891 -122.58028 23144 ft 232 kts 292°
2026-04-28 21:17 38.90394 -122.59961 23143 ft 227 kts 300°
2026-04-28 21:18 38.90950 -122.61866 23149 ft 228 kts 299°
2026-04-28 21:18 38.91496 -122.63774 23137 ft 228 kts 298°
2026-04-28 21:18 38.92048 -122.65679 23133 ft 228 kts 299°
2026-04-28 21:18 38.92600 -122.67585 23137 ft 228 kts 298°
2026-04-28 21:19 38.93155 -122.69501 23133 ft 229 kts 298°
2026-04-28 21:19 38.93708 -122.71417 23135 ft 228 kts 298°
2026-04-28 21:19 38.94255 -122.73320 23134 ft 226 kts 298°
2026-04-28 21:19 38.94804 -122.75216 23131 ft 227 kts 298°
2026-04-28 21:20 38.95353 -122.77115 23135 ft 227 kts 298°
2026-04-28 21:20 38.95900 -122.79018 23131 ft 226 kts 299°
2026-04-28 21:20 38.96436 -122.80886 23131 ft 226 kts 299°
2026-04-28 21:20 38.96984 -122.82785 23132 ft 227 kts 298°
2026-04-28 21:21 38.97531 -122.84683 23132 ft 227 kts 298°
2026-04-28 21:21 38.98078 -122.86590 23131 ft 227 kts 298°
2026-04-28 21:21 38.98626 -122.88497 23130 ft 228 kts 298°
2026-04-28 21:21 38.99173 -122.90406 23133 ft 227 kts 298°
2026-04-28 21:22 38.99720 -122.92313 23129 ft 228 kts 298°
2026-04-28 21:22 39.00267 -122.94221 23128 ft 228 kts 298°
2026-04-28 21:22 39.00814 -122.96134 23130 ft 228 kts 298°
2026-04-28 21:22 39.01184 -122.97425 23130 ft 228 kts 298°
2026-04-28 21:23 39.01911 -122.99967 23132 ft 229 kts 298°
2026-04-28 21:23 39.02461 -123.01892 23132 ft 229 kts 298°
2026-04-28 21:23 39.03011 -123.03821 23131 ft 230 kts 298°
2026-04-28 21:23 39.03375 -123.05097 23132 ft 229 kts 298°
2026-04-28 21:24 39.03921 -123.07017 23133 ft 228 kts 298°
2026-04-28 21:24 39.04467 -123.08934 23134 ft 228 kts 298°
2026-04-28 21:24 39.05013 -123.10846 23134 ft 227 kts 298°
2026-04-28 21:24 39.05731 -123.13373 23131 ft 227 kts 298°
2026-04-28 21:25 39.06097 -123.14661 23133 ft 227 kts 298°
2026-04-28 21:25 39.06640 -123.16572 23128 ft 227 kts 297°
2026-04-28 21:25 39.07183 -123.18488 23133 ft 228 kts 297°
2026-04-28 21:25 39.07729 -123.20406 23132 ft 229 kts 297°
2026-04-28 21:26 39.08277 -123.22337 23136 ft 229 kts 297°
2026-04-28 21:26 39.08823 -123.24269 23134 ft 230 kts 297°
2026-04-28 21:26 39.09364 -123.26181 23131 ft 231 kts 297°
2026-04-28 21:26 39.09914 -123.28129 23135 ft 232 kts 297°
2026-04-28 21:27 39.10465 -123.30079 23131 ft 231 kts 297°
2026-04-28 21:27 39.11016 -123.32026 23133 ft 232 kts 297°
2026-04-28 21:27 39.11565 -123.33976 23132 ft 232 kts 297°
2026-04-28 21:27 39.12115 -123.35925 23135 ft 231 kts 297°
2026-04-28 21:28 39.12664 -123.37873 23135 ft 231 kts 297°
2026-04-28 21:28 39.13213 -123.39821 23134 ft 231 kts 297°
2026-04-28 21:28 39.13761 -123.41768 23138 ft 231 kts 297°
2026-04-28 21:28 39.14308 -123.43714 23141 ft 231 kts 297°
2026-04-28 21:29 39.14854 -123.45661 23140 ft 231 kts 297°
2026-04-28 21:29 39.15400 -123.47609 23141 ft 231 kts 297°
2026-04-28 21:29 39.15949 -123.49560 23149 ft 231 kts 297°
2026-04-28 21:29 39.16496 -123.51513 23153 ft 232 kts 297°
2026-04-28 21:30 39.17041 -123.53466 23159 ft 231 kts 297°
2026-04-28 21:30 39.17590 -123.55422 23160 ft 233 kts 297°
2026-04-28 21:30 39.18140 -123.57389 23159 ft 233 kts 297°
2026-04-28 21:30 39.18681 -123.59329 23160 ft 232 kts 297°
2026-04-28 21:31 39.19228 -123.61288 23165 ft 232 kts 297°
2026-04-28 21:31 39.19774 -123.63241 23164 ft 231 kts 297°
2026-04-28 21:31 39.20318 -123.65194 23168 ft 231 kts 297°
2026-04-28 21:31 39.20861 -123.67145 23168 ft 230 kts 297°
2026-04-28 21:32 39.21403 -123.69086 23169 ft 229 kts 296°
2026-04-28 21:32 39.21942 -123.71026 23176 ft 230 kts 296°
2026-04-28 21:32 39.22482 -123.72966 23172 ft 230 kts 296°
2026-04-28 21:32 39.23022 -123.74909 23174 ft 230 kts 296°
2026-04-28 21:33 39.23561 -123.76853 23197 ft 230 kts 296°
2026-04-28 21:33 39.24100 -123.78797 23195 ft 230 kts 296°
2026-04-28 21:33 39.24640 -123.80742 23194 ft 230 kts 296°
2026-04-28 21:33 39.25173 -123.82666 23192 ft 230 kts 296°
2026-04-28 21:34 39.25712 -123.84615 23192 ft 230 kts 296°
2026-04-28 21:34 39.26249 -123.86560 23192 ft 230 kts 296°
2026-04-28 21:34 39.26786 -123.88503 23194 ft 230 kts 296°
2026-04-28 21:34 39.27324 -123.90449 23191 ft 230 kts 296°
2026-04-28 21:35 39.27861 -123.92396 23192 ft 230 kts 296°
2026-04-28 21:35 39.28398 -123.94343 23195 ft 230 kts 296°
2026-04-28 21:35 39.28932 -123.96284 23198 ft 230 kts 296°
2026-04-28 21:35 39.29467 -123.98229 23192 ft 230 kts 296°
2026-04-28 21:36 39.30003 -124.00175 23190 ft 230 kts 296°
2026-04-28 21:36 39.30538 -124.02122 23191 ft 230 kts 296°
2026-04-28 21:36 39.31074 -124.04072 23196 ft 230 kts 296°
2026-04-28 21:36 39.31609 -124.06022 23204 ft 230 kts 296°
2026-04-28 21:37 39.32137 -124.07950 23195 ft 230 kts 296°
2026-04-28 21:37 39.32678 -124.09923 23190 ft 230 kts 296°
2026-04-28 21:37 39.33205 -124.11848 23200 ft 230 kts 296°
2026-04-28 21:37 39.33739 -124.13799 23200 ft 230 kts 296°
2026-04-28 21:38 39.34273 -124.15752 23204 ft 230 kts 296°
2026-04-28 21:38 39.34807 -124.17707 23203 ft 231 kts 296°
2026-04-28 21:38 39.35340 -124.19659 23198 ft 230 kts 296°
2026-04-28 21:38 39.35872 -124.21611 23190 ft 230 kts 296°
2026-04-28 21:39 39.36403 -124.23561 23199 ft 230 kts 296°
2026-04-28 21:39 39.36936 -124.25515 23197 ft 231 kts 296°
2026-04-28 21:39 39.37468 -124.27470 23197 ft 231 kts 296°
2026-04-28 21:39 39.38001 -124.29432 23199 ft 231 kts 296°
2026-04-28 21:40 39.38533 -124.31390 23197 ft 231 kts 296°
2026-04-28 21:40 39.39067 -124.33354 23209 ft 231 kts 296°
2026-04-28 21:40 39.39598 -124.35313 23199 ft 231 kts 296°
2026-04-28 21:40 39.40124 -124.37254 23203 ft 231 kts 296°
2026-04-28 21:41 39.40656 -124.39217 23202 ft 231 kts 296°
2026-04-28 21:41 39.41187 -124.41178 23206 ft 231 kts 296°
2026-04-28 21:41 39.41718 -124.43142 23215 ft 231 kts 296°
2026-04-28 21:41 39.42248 -124.45103 23207 ft 231 kts 296°
2026-04-28 21:42 39.42778 -124.47067 23211 ft 231 kts 296°
2026-04-28 21:42 39.43306 -124.49027 23211 ft 230 kts 296°
2026-04-28 21:42 39.43836 -124.50988 23210 ft 231 kts 296°
2026-04-28 21:42 39.44364 -124.52947 23214 ft 231 kts 296°
2026-04-28 21:43 39.44893 -124.54914 23215 ft 231 kts 296°
2026-04-28 21:43 39.45422 -124.56880 23214 ft 231 kts 296°
2026-04-28 21:43 39.45950 -124.58845 23219 ft 231 kts 296°
2026-04-28 21:43 39.46479 -124.60813 23217 ft 231 kts 296°
2026-04-28 21:44 39.47007 -124.62781 23216 ft 231 kts 296°
2026-04-28 21:44 39.47535 -124.64750 23214 ft 231 kts 296°
2026-04-28 21:44 39.48062 -124.66717 23216 ft 231 kts 296°
2026-04-28 21:44 39.48582 -124.68659 23217 ft 231 kts 296°
2026-04-28 21:45 39.49108 -124.70626 23220 ft 231 kts 296°
2026-04-28 21:45 39.49634 -124.72593 23219 ft 231 kts 296°
2026-04-28 21:45 39.50159 -124.74560 23220 ft 231 kts 296°
2026-04-28 21:45 39.50685 -124.76530 23221 ft 231 kts 296°
2026-04-28 21:46 39.51210 -124.78497 23222 ft 231 kts 296°
2026-04-28 21:46 39.51734 -124.80465 23223 ft 231 kts 296°
2026-04-28 21:46 39.52259 -124.82436 23222 ft 231 kts 296°
2026-04-28 21:46 39.52783 -124.84404 23226 ft 231 kts 296°
2026-04-28 21:47 39.53307 -124.86375 23224 ft 231 kts 296°
2026-04-28 21:47 39.53830 -124.88344 23225 ft 231 kts 296°
2026-04-28 21:47 39.54353 -124.90314 23227 ft 231 kts 296°
2026-04-28 21:47 39.54874 -124.92281 23228 ft 231 kts 296°
2026-04-28 21:48 39.55396 -124.94252 23231 ft 231 kts 296°
2026-04-28 21:48 39.55918 -124.96221 23229 ft 231 kts 296°
2026-04-28 21:48 39.56442 -124.98197 23231 ft 232 kts 296°
2026-04-28 21:48 39.56964 -125.00175 23231 ft 232 kts 296°
2026-04-28 21:49 39.57487 -125.02152 23230 ft 232 kts 296°
2026-04-28 21:49 39.58008 -125.04130 23232 ft 232 kts 296°
2026-04-28 21:49 39.58531 -125.06108 23230 ft 232 kts 296°
2026-04-28 21:49 39.59052 -125.08087 23232 ft 232 kts 296°
2026-04-28 21:50 39.59573 -125.10066 23234 ft 232 kts 296°
2026-04-28 21:50 39.60095 -125.12048 23235 ft 232 kts 296°
2026-04-28 21:50 39.60616 -125.14028 23233 ft 232 kts 296°
2026-04-28 21:50 39.61136 -125.16009 23234 ft 232 kts 296°
2026-04-28 21:51 39.61657 -125.17992 23239 ft 232 kts 296°
2026-04-28 21:51 39.62177 -125.19975 23240 ft 232 kts 296°
2026-04-28 21:51 39.62696 -125.21956 23242 ft 232 kts 296°
2026-04-28 21:51 39.63214 -125.23936 23246 ft 232 kts 296°
2026-04-28 21:52 39.63727 -125.25894 23244 ft 232 kts 296°
2026-04-28 21:52 39.64246 -125.27878 23246 ft 232 kts 296°
2026-04-28 21:52 39.64765 -125.29866 23244 ft 232 kts 296°
2026-04-28 21:52 39.65284 -125.31853 23245 ft 232 kts 296°
2026-04-28 21:53 39.65802 -125.33840 23244 ft 232 kts 296°
2026-04-28 21:53 39.66319 -125.35826 23247 ft 232 kts 296°
2026-04-28 21:53 39.66838 -125.37815 23246 ft 232 kts 296°
2026-04-28 21:53 39.67355 -125.39802 23247 ft 232 kts 296°
2026-04-28 21:54 39.67871 -125.41790 23246 ft 232 kts 296°
2026-04-28 21:54 39.68388 -125.43778 23253 ft 232 kts 296°
2026-04-28 21:54 39.68904 -125.45765 23254 ft 232 kts 296°
2026-04-28 21:54 39.69420 -125.47755 23255 ft 232 kts 296°
2026-04-28 21:55 39.69936 -125.49746 23256 ft 232 kts 296°
2026-04-28 21:55 39.70452 -125.51737 23254 ft 232 kts 296°
2026-04-28 21:55 39.70960 -125.53702 23259 ft 232 kts 296°
2026-04-28 21:55 39.71474 -125.55691 23252 ft 232 kts 296°
2026-04-28 21:56 39.71988 -125.57682 23256 ft 233 kts 296°
2026-04-28 21:56 39.72505 -125.59680 23255 ft 234 kts 296°
2026-04-28 21:56 39.73021 -125.61682 23254 ft 234 kts 296°
2026-04-28 21:56 39.73537 -125.63687 23256 ft 234 kts 296°
2026-04-28 21:57 39.74054 -125.65695 23255 ft 234 kts 296°
2026-04-28 21:57 39.74571 -125.67703 23261 ft 234 kts 296°
2026-04-28 21:57 39.75088 -125.69713 23260 ft 234 kts 296°
2026-04-28 21:57 39.75603 -125.71721 23261 ft 234 kts 296°
2026-04-28 21:58 39.76120 -125.73732 23262 ft 234 kts 296°
2026-04-28 21:58 39.76635 -125.75743 23263 ft 234 kts 296°
2026-04-28 21:58 39.77151 -125.77755 23265 ft 234 kts 296°
2026-04-28 21:58 39.77666 -125.79768 23263 ft 234 kts 296°
2026-04-28 21:59 39.78181 -125.81780 23264 ft 234 kts 296°
2026-04-28 21:59 39.78695 -125.83793 23263 ft 234 kts 296°
2026-04-28 21:59 39.79208 -125.85802 23268 ft 234 kts 296°
2026-04-28 22:00 39.80235 -125.89827 23271 ft 235 kts 296°
2026-04-28 22:00 39.80743 -125.91819 23270 ft 235 kts 296°
2026-04-28 22:00 39.81257 -125.93838 23272 ft 235 kts 296°
2026-04-28 22:00 39.81770 -125.95858 23270 ft 235 kts 296°
2026-04-28 22:01 39.82283 -125.97877 23275 ft 235 kts 296°
2026-04-28 22:01 39.82796 -125.99895 23274 ft 235 kts 296°
2026-04-28 22:01 39.83309 -126.01915 23272 ft 235 kts 296°
2026-04-28 22:01 39.83820 -126.03934 23271 ft 235 kts 296°
2026-04-28 22:02 39.84331 -126.05952 23272 ft 235 kts 296°
2026-04-28 22:02 39.84842 -126.07971 23271 ft 235 kts 296°
2026-04-28 22:02 39.85353 -126.09991 23277 ft 235 kts 296°
2026-04-28 22:02 39.85864 -126.12014 23277 ft 235 kts 296°
2026-04-28 22:03 39.86375 -126.14036 23277 ft 235 kts 296°
2026-04-28 22:03 39.86884 -126.16057 23270 ft 235 kts 296°
2026-04-28 22:03 39.87393 -126.18076 23274 ft 235 kts 296°
2026-04-28 22:03 39.87902 -126.20097 23285 ft 235 kts 296°
2026-04-28 22:04 39.88412 -126.22127 23281 ft 236 kts 296°
2026-04-28 22:04 39.88924 -126.24159 23283 ft 236 kts 296°
2026-04-28 22:04 39.89429 -126.26170 23283 ft 237 kts 296°
2026-04-28 22:04 39.89940 -126.28208 23282 ft 237 kts 296°
2026-04-28 22:05 39.90451 -126.30247 23284 ft 237 kts 296°
2026-04-28 22:05 39.90963 -126.32289 23283 ft 237 kts 296°
2026-04-28 22:05 39.91475 -126.34335 23282 ft 237 kts 296°
2026-04-28 22:05 39.91985 -126.36374 23284 ft 237 kts 296°
2026-04-28 22:06 39.92496 -126.38418 23286 ft 237 kts 296°
2026-04-28 22:06 39.93006 -126.40460 23284 ft 237 kts 296°
2026-04-28 22:06 39.93515 -126.42502 23285 ft 237 kts 296°
2026-04-28 22:06 39.94024 -126.44544 23285 ft 237 kts 296°
2026-04-28 22:07 39.94533 -126.46588 23287 ft 237 kts 296°
2026-04-28 22:07 39.95040 -126.48627 23291 ft 237 kts 296°
2026-04-28 22:07 39.95548 -126.50670 23292 ft 237 kts 296°
2026-04-28 22:07 39.96056 -126.52713 23290 ft 237 kts 296°
2026-04-28 22:08 39.96563 -126.54757 23292 ft 237 kts 296°
2026-04-28 22:08 39.97071 -126.56802 23291 ft 237 kts 296°
2026-04-28 22:08 39.97577 -126.58848 23290 ft 237 kts 296°
2026-04-28 22:08 39.98084 -126.60897 23296 ft 237 kts 296°
2026-04-28 22:09 39.98590 -126.62944 23295 ft 237 kts 296°
2026-04-28 22:09 39.99096 -126.64991 23294 ft 237 kts 296°
2026-04-28 22:09 39.99603 -126.67039 23293 ft 237 kts 296°
2026-04-28 22:09 40.00108 -126.69091 23297 ft 237 kts 296°
2026-04-28 22:10 40.00442 -126.70447 23296 ft 237 kts 296°
2026-04-28 22:10 40.00948 -126.72499 23295 ft 237 kts 296°
2026-04-28 22:10 40.01453 -126.74549 23302 ft 237 kts 296°
2026-04-28 22:10 40.01957 -126.76599 23300 ft 237 kts 296°
2026-04-28 22:11 40.02461 -126.78652 23302 ft 237 kts 296°
2026-04-28 22:11 40.02965 -126.80703 23300 ft 237 kts 296°
2026-04-28 22:11 40.03467 -126.82753 23299 ft 237 kts 296°
2026-04-28 22:11 40.03971 -126.84805 23298 ft 238 kts 296°
2026-04-28 22:12 40.04475 -126.86862 23303 ft 238 kts 296°
2026-04-28 22:12 40.05148 -126.89617 23301 ft 238 kts 296°
2026-04-28 22:12 40.05482 -126.90983 23303 ft 238 kts 296°
2026-04-28 22:12 40.05986 -126.93044 23300 ft 238 kts 296°
2026-04-28 22:13 40.06489 -126.95106 23307 ft 239 kts 296°
2026-04-28 22:13 40.06992 -126.97170 23305 ft 239 kts 296°
2026-04-28 22:13 40.07494 -126.99235 23308 ft 239 kts 296°
2026-04-28 22:13 40.07998 -127.01303 23307 ft 239 kts 296°
2026-04-28 22:14 40.08501 -127.03369 23307 ft 239 kts 296°
2026-04-28 22:14 40.09004 -127.05438 23303 ft 239 kts 296°
2026-04-28 22:14 40.09505 -127.07508 23308 ft 239 kts 296°
2026-04-28 22:14 40.10008 -127.09579 23307 ft 239 kts 296°
2026-04-28 22:15 40.10503 -127.11620 23304 ft 239 kts 296°
2026-04-28 22:15 40.11003 -127.13693 23313 ft 239 kts 296°
2026-04-28 22:15 40.11505 -127.15765 23311 ft 239 kts 296°
2026-04-28 22:15 40.12006 -127.17834 23308 ft 239 kts 296°
2026-04-28 22:16 40.12505 -127.19905 23311 ft 239 kts 296°
2026-04-28 22:16 40.13006 -127.21980 23311 ft 239 kts 296°
2026-04-28 22:16 40.13505 -127.24050 23313 ft 239 kts 296°
2026-04-28 22:16 40.14004 -127.26123 23316 ft 239 kts 295°
2026-04-28 22:17 40.14503 -127.28196 23321 ft 239 kts 295°
2026-04-28 22:17 40.15000 -127.30265 23317 ft 239 kts 296°
2026-04-28 22:17 40.15498 -127.32336 23318 ft 239 kts 295°
2026-04-28 22:17 40.15995 -127.34410 23319 ft 239 kts 295°
2026-04-28 22:18 40.16492 -127.36482 23320 ft 239 kts 295°
2026-04-28 22:18 40.16989 -127.38557 23319 ft 239 kts 295°
2026-04-28 22:18 40.17486 -127.40633 23319 ft 239 kts 295°
2026-04-28 22:18 40.17982 -127.42707 23320 ft 239 kts 295°
2026-04-28 22:19 40.18471 -127.44756 23324 ft 239 kts 295°
2026-04-28 22:19 40.18966 -127.46832 23325 ft 239 kts 295°
2026-04-28 22:19 40.19462 -127.48909 23326 ft 239 kts 295°
2026-04-28 22:19 40.19959 -127.50990 23322 ft 240 kts 295°
2026-04-28 22:20 40.20454 -127.53072 23330 ft 240 kts 295°
2026-04-28 22:20 40.20949 -127.55156 23331 ft 240 kts 295°
2026-04-28 22:20 40.21444 -127.57239 23328 ft 240 kts 295°
2026-04-28 22:20 40.21939 -127.59323 23324 ft 240 kts 295°
2026-04-28 22:21 40.22434 -127.61411 23325 ft 240 kts 295°
2026-04-28 22:21 40.22928 -127.63497 23327 ft 240 kts 295°
2026-04-28 22:21 40.23422 -127.65585 23327 ft 240 kts 295°
2026-04-28 22:21 40.23916 -127.67674 23328 ft 240 kts 295°
2026-04-28 22:22 40.24404 -127.69739 23327 ft 241 kts 295°
2026-04-28 22:22 40.24899 -127.71838 23335 ft 240 kts 295°
2026-04-28 22:22 40.25393 -127.73930 23329 ft 240 kts 295°
2026-04-28 22:22 40.25887 -127.76025 23325 ft 240 kts 295°
2026-04-28 22:23 40.26379 -127.78115 23331 ft 240 kts 295°
2026-04-28 22:23 40.26870 -127.80203 23328 ft 240 kts 295°
2026-04-28 22:23 40.27363 -127.82294 23329 ft 240 kts 295°
2026-04-28 22:23 40.27853 -127.84385 23327 ft 240 kts 295°
2026-04-28 22:24 40.28345 -127.86480 23329 ft 240 kts 295°
2026-04-28 22:24 40.28835 -127.88573 23329 ft 240 kts 295°
2026-04-28 22:24 40.29325 -127.90664 23333 ft 240 kts 295°
2026-04-28 22:24 40.29814 -127.92756 23334 ft 240 kts 295°
2026-04-28 22:25 40.30303 -127.94848 23335 ft 240 kts 295°
2026-04-28 22:25 40.30792 -127.96943 23333 ft 240 kts 295°
2026-04-28 22:25 40.31275 -127.99011 23338 ft 240 kts 295°
2026-04-28 22:25 40.31763 -128.01105 23339 ft 240 kts 295°
2026-04-28 22:26 40.32251 -128.03203 23337 ft 240 kts 295°
2026-04-28 22:26 40.32740 -128.05303 23337 ft 241 kts 295°
2026-04-28 22:26 40.33228 -128.07402 23335 ft 241 kts 295°
2026-04-28 22:26 40.33715 -128.09502 23339 ft 241 kts 295°
2026-04-28 22:27 40.34201 -128.11598 23339 ft 240 kts 295°
2026-04-28 22:27 40.34686 -128.13690 23337 ft 240 kts 295°
2026-04-28 22:27 40.35171 -128.15782 23336 ft 240 kts 295°
2026-04-28 22:27 40.35656 -128.17876 23340 ft 240 kts 295°
2026-04-28 22:28 40.36139 -128.19968 23339 ft 240 kts 295°
2026-04-28 22:28 40.36623 -128.22063 23340 ft 240 kts 295°
2026-04-28 22:28 40.37107 -128.24159 23338 ft 240 kts 295°
2026-04-28 22:28 40.37590 -128.26253 23340 ft 240 kts 295°
2026-04-28 22:29 40.38072 -128.28347 23338 ft 240 kts 295°
2026-04-28 22:29 40.38553 -128.30441 23345 ft 240 kts 295°
2026-04-28 22:29 40.39035 -128.32534 23344 ft 240 kts 295°
2026-04-28 22:29 40.39510 -128.34602 23345 ft 240 kts 295°
2026-04-28 22:30 40.39991 -128.36697 23350 ft 240 kts 295°
2026-04-28 22:30 40.40471 -128.38792 23348 ft 240 kts 295°
2026-04-28 22:30 40.40951 -128.40886 23347 ft 240 kts 295°
2026-04-28 22:30 40.41431 -128.42982 23346 ft 240 kts 295°
2026-04-28 22:31 40.41910 -128.45081 23353 ft 239 kts 295°
2026-04-28 22:31 40.42389 -128.47175 23351 ft 239 kts 295°
2026-04-28 22:31 40.42867 -128.49270 23350 ft 239 kts 295°
2026-04-28 22:31 40.43344 -128.51365 23349 ft 239 kts 295°
2026-04-28 22:32 40.43818 -128.53437 23348 ft 240 kts 295°
2026-04-28 22:32 40.44295 -128.55532 23347 ft 240 kts 295°
2026-04-28 22:32 40.44771 -128.57630 23350 ft 240 kts 295°
2026-04-28 22:32 40.45248 -128.59728 23349 ft 240 kts 294°
2026-04-28 22:33 40.45724 -128.61827 23353 ft 240 kts 294°
2026-04-28 22:33 40.46199 -128.63924 23351 ft 240 kts 294°
2026-04-28 22:33 40.46675 -128.66021 23350 ft 240 kts 294°
2026-04-28 22:33 40.47150 -128.68120 23349 ft 240 kts 294°
2026-04-28 22:34 40.47624 -128.70217 23355 ft 240 kts 294°
2026-04-28 22:34 40.48098 -128.72316 23354 ft 240 kts 294°
2026-04-28 22:34 40.48572 -128.74416 23353 ft 240 kts 294°
2026-04-28 22:34 40.49044 -128.76517 23345 ft 239 kts 294°
2026-04-28 22:35 40.49516 -128.78610 23352 ft 239 kts 294°
2026-04-28 22:35 40.49989 -128.80711 23354 ft 239 kts 294°
2026-04-28 22:35 40.50461 -128.82809 23357 ft 240 kts 294°
2026-04-28 22:35 40.50933 -128.84909 23359 ft 240 kts 294°
2026-04-28 22:36 40.51404 -128.87010 23359 ft 240 kts 294°
2026-04-28 22:36 40.51875 -128.89110 23360 ft 240 kts 294°
2026-04-28 22:36 40.52345 -128.91211 23358 ft 240 kts 294°
2026-04-28 22:36 40.52810 -128.93286 23360 ft 240 kts 294°
2026-04-28 22:37 40.53279 -128.95385 23360 ft 240 kts 294°
2026-04-28 22:37 40.53749 -128.97489 23366 ft 240 kts 294°
2026-04-28 22:37 40.54218 -128.99595 23364 ft 240 kts 294°
2026-04-28 22:37 40.54688 -129.01700 23362 ft 240 kts 294°
2026-04-28 22:38 40.55157 -129.03808 23367 ft 240 kts 294°
2026-04-28 22:38 40.55625 -129.05913 23365 ft 240 kts 294°
2026-04-28 22:38 40.56093 -129.08017 23364 ft 240 kts 294°
2026-04-28 22:38 40.56561 -129.10124 23366 ft 239 kts 294°
2026-04-28 22:39 40.57026 -129.12225 23368 ft 239 kts 294°
2026-04-28 22:39 40.57492 -129.14326 23367 ft 239 kts 294°
2026-04-28 22:39 40.57959 -129.16430 23366 ft 239 kts 294°
2026-04-28 22:39 40.58423 -129.18533 23367 ft 239 kts 294°
2026-04-28 22:40 40.58888 -129.20637 23365 ft 239 kts 294°
2026-04-28 22:40 40.59347 -129.22714 23367 ft 239 kts 294°
2026-04-28 22:40 40.59811 -129.24819 23365 ft 239 kts 294°
2026-04-28 22:40 40.60275 -129.26923 23366 ft 239 kts 294°
2026-04-28 22:41 40.60738 -129.29027 23368 ft 239 kts 294°
2026-04-28 22:41 40.61201 -129.31133 23370 ft 239 kts 294°
2026-04-28 22:41 40.61664 -129.33238 23368 ft 239 kts 294°
2026-04-28 22:41 40.62126 -129.35343 23370 ft 240 kts 293°
2026-04-28 22:42 40.62587 -129.37449 23377 ft 239 kts 293°